Regional Weather Roundup
Issued by NWS

Home | Current Version | Previous Version | Graphics & Text | Print | Product List | Glossary Off
Versions: 1 2 3 4 5 6 7 8 9 10 11 12 13 14 15 16 17 18 19 20 21 22 23 24 25 26 27 28 29 30 31 32 33 34 35 36 37 38 39 40 41 42 43 44 45 46 47 48 49 50

000
ASUS43 KMKX 282211
RWRWI

WISCONSIN REGIONAL WEATHER ROUNDUP
NATIONAL WEATHER SERVICE MILWAUKEE/SULLIVAN WI
500 PM CDT FRI APR 28 2017

NOTE: "FAIR" INDICATES FEW OR NO CLOUDS BELOW 12,000 FEET WITH NO
SIGNIFICANT WEATHER AND/OR OBSTRUCTIONS TO VISIBILITY.

WIZ001-002-006>008-014>016-023>028-282300-
NORTHWEST WISCONSIN

CITY           SKY/WX    TMP DP  RH WIND       PRES   REMARKS
SUPERIOR ARPT  CLOUDY    51  27  39 NW8       29.94R
ASHLAND        CLOUDY    48  28  46 NW12      29.93F
HAYWARD        CLOUDY    48  25  40 VRB3      29.94R
SIREN          CLOUDY    48  26  41 N7        29.95R
CUMBERLAND     CLOUDY    45  27  49 NW8       29.94F
RICE LAKE      CLOUDY    47  29  50 W7        29.96S
CHETEK         CLOUDY    47  31  54 N6        29.94S
LADYSMITH      CLOUDY    46  28  49 CALM      29.95S
EAU CLAIRE     MOSUNNY   49  29  46 VRB5      29.92F
MENOMONIE      PTSUNNY   49  30  47 NW9       29.93S
NEW RICHMOND   CLOUDY    46  28  48 NW6       29.96R
OSCEOLA        PTSUNNY   49  29  47 NW7       29.98S
$$

WIZ003>005-009-010-017-018-282300-
NORTH CENTRAL WISCONSIN

CITY           SKY/WX    TMP DP  RH WIND       PRES   REMARKS
MANITOWISH WTR CLOUDY    37  29  72 W6        29.93R WCI  32
ARBOR VITAE    CLOUDY    39  29  66 NW10      29.92R WCI  32
WOODRUFF       CLOUDY    39  29  66 NW10      29.92R WCI  32
RHINELANDER    CLOUDY    44  29  55 W12       29.92R
EAGLE RIVER    CLOUDY    39  26  58 NW12      29.91R WCI  32
LAND O LAKES   CLOUDY    38  26  63 NW9       29.93R WCI  31
PHILLIPS       CLOUDY    43  28  57 NW5       29.92S
TOMAHAWK       MOSUNNY   43  29  58 W9        29.93R
MEDFORD        CLOUDY    44  31  58 SW5       29.91S
MERRILL        CLOUDY    45  30  55 W5        29.93R
$$

WIZ029-030-035-036-043>047-282300-
CENTRAL WISCONSIN

CITY           SKY/WX    TMP DP  RH WIND       PRES   REMARKS
WAUSAU         CLOUDY    45  30  55 W6        29.91R
MOSINEE        CLOUDY    45  30  57 NW7       29.93R
MARSHFIELD     CLOUDY    47  30  51 W6        29.90F
STEVENS POINT  CLOUDY    45  31  57 NW6       29.92F
WAUPACA        CLOUDY    51  32  47 NW7       29.91S
WAUTOMA        CLOUDY    50  33  52 N7        29.90S
WISC RAPIDS    CLOUDY    49  32  52 N8        29.91F
CAMP DOUGLAS   CLOUDY    49  33  54 N5        29.90F
$$

WIZ011>013-019>022-031-037>040-048>050-282300-
NORTHEAST WISCONSIN

CITY           SKY/WX    TMP DP  RH WIND       PRES   REMARKS
ANTIGO         CLOUDY    43  31  62 W8        29.92R
SHAWANO        CLOUDY    50  31  49 NW7       29.92R
OCONTO         PTSUNNY   49  32  51 SW8       29.91S
STURGEON BAY   CLOUDY    48  32  53 SW9       29.92F
GREEN BAY      CLOUDY    52  38  58 W5        29.92R
MANITOWOC      PTSUNNY   43  35  73 SE9       29.94R
APPLETON       PTSUNNY   48  30  49 VRB5      29.89S
CLINTONVILLE   CLOUDY    50  30  46 NW10      29.91S
OSHKOSH        CLOUDY    50  34  54 NW6       29.90R
$$

WIZ032>034-041-042-053>061-282300-
SOUTHWEST WISCONSIN

CITY           SKY/WX    TMP DP  RH WIND       PRES   REMARKS
LA CROSSE      CLOUDY    50  33  52 NW7       29.92R
SPARTA         PTSUNNY   48  34  58 N7        29.92R
VIROQUA        PTSUNNY   47  33  59 N6        29.90R
BOSCOBEL       LGT RAIN  49  39  68 CALM      29.90R
PRAIRIE DU CHI LGT RAIN  47  39  75 N5        29.89S
PLATTEVILLE    CLOUDY    46  44  90 NE7       29.88S
$$

WIZ056-057-062-063-064-067-068-282300-
SOUTH CENTRAL WISCONSIN

CITY           SKY/WX    TMP DP  RH WIND       PRES   REMARKS
REEDSBURG      NOT AVBL
BARABOO/DELLS  LGT RAIN  48  32  53 CALM      29.90R
LONE ROCK      LGT RAIN  48  41  76 NE3       29.90S
MINERAL POINT  LGT RAIN  48  43  81 NE5       29.89R
MADISON        CLOUDY    49  36  61 N5        29.89S
MIDDLETON      CLOUDY    49  39  68 CALM      29.90S
WATERTOWN      DRIZZLE   49  41  74 N3        29.89S
MONROE         DRIZZLE   45  41  87 N8        29.88S
JANESVILLE     CLOUDY    54  43  66 NE6       29.86F
$$

WIZ051-052-058>065-066-070>072-282300-
SOUTHEAST WISCONSIN

CITY           SKY/WX    TMP DP  RH WIND       PRES   REMARKS
MILWAUKEE      CLOUDY    47  40  76 E6        29.89F
WAUKESHA       LGT RAIN  52  39  62 CALM      29.89F
MILWAUKEE/TIMM CLOUDY    46  36  66 E6        29.90S
RACINE         CLOUDY    47  39  74 E3        29.91F
KENOSHA        CLOUDY    47  40  76 E8        29.89S
FOND DU LAC    LGT RAIN  51  35  54 N3        29.90R
SHEBOYGAN      LGT RAIN  46  40  79 E3        29.91S
WEST BEND      LGT RAIN  50  37  62 E5        29.89F
JUNEAU         LGT RAIN  49  36  62 CALM      29.91S
$$

LSZ147-162-282300-
LAKE SUPERIOR

STATION/POSITION TIME  TEMP    WIND        PRES    WAVE
                       AIR SEA DIR/SP/G            HT/PER
                 (UTC) (F)     (DEG/KT/KT) (MB)    (FT/S)
DEVILS ISLAND    2200   39     340/ 11/ 12 1014.9R
SAXON HARBOR     2130   43     320/ 10/ 13 1013.2F
$$

LMZ867-665-643>646-282300-
LAKE MICHIGAN

STATION/POSITION TIME  TEMP    WIND        PRES    WAVE
                       AIR SEA DIR/SP/G            HT/PER
                 (UTC) (F)     (DEG/KT/KT) (MB)    (FT/S)
CHAMBERS ISLAND  2140   47     170/  6/ 12 1012.5F
N MID LAKE BUOY  2150   38 37  190/ 12/ 14 1015.1F   2/ 6
NORTHPORT PIER   2140   42     170/  8/ 13 1013.5S
KEWAUNEE LAKESHO 2148   41     170/ 12/ 14 1013.0S
SHEBOYGAN LAKESH 2200   40     140/  2/  3 1013.5R
PORT WASHINGTON  2130   42      80/  2/  4 1013.9S
MILWAUKEE LAKESH 2150   42      80/  4/  5   N/A
S MID LAKE BUOY  2150   42 42   50/  8/ 10 1012.7F   0
KENOSHA   LAKESH 2200   44      70/  5/  5 1012.2
$$

TC  - TEMPERATURE IN CELSIUS
VSB - VISIBILITY IN STATUTE MILES
WCI - WIND CHILL INDEX
HX  - HEAT INDEX




USA.gov is the U.S. government's official web portal to all federal, state and local government web resources and services.